User: anonymous   Login
Location: Unspecified
(48.5670°N, 0.0000°E)
Time: 22:10:04
(UTC+00:00)
Language:

Vanguard 2 Rocket - Orbit

View from above orbital plane
View from above orbital plane
View from above satellite
View from above satellite

Ground track
Ground track

The orbit data is extracted from the following two-line orbital elements,

1    12U 59001B   19196.10995127  .00000211  00000-0  13041-3 0  9994
2    12  32.8996  94.7280 1666148  97.1655 282.0476 11.44271641483798
Epoch (UTC): 15 July 2019 02:38:19
Eccentricity: 0.1666148
inclination: 32.8996°
perigee height: 554 km
apogee height: 3326 km
right ascension of ascending node: 94.7280°
argument of perigee: 97.1655°
revolutions per day: 11.44271641
mean anomaly at epoch: 282.0476°
orbit number at epoch: 48379

The dashed part of the orbit path shows where the satellite is in the earth's shadow,  

DLR